Date_and_time,latitude,longitude,wind_speed,RelWindDirFrom,WindDirFrom,air_pressure,air_temperature,relative_humidity,Temp,platform_speed_wrt_ground,air_pressure_at_mean_sea_level,platform_orientation
2018-07-11 23:50,50.6304616666667,-96.98076,10.9,17.7,194,979.15,26.6,81,24.37,0.0,1004.32,323.4
2018-07-12 00:00,50.6304633333333,-96.980765,10.4,16.6,206,979.13,26.7,76,24.36,0.0,1004.30,12.6
2018-07-12 00:10,50.6304566666667,-96.9807833333333,12.3,17.9,217,979.19,27.1,66,24.38,0.0,1004.35,12.6
2018-07-12 00:20,50.63046,-96.9807783333333,12.1,21.1,226,979.15,27.4,63,24.42,0.0,1004.29,12.6
2018-07-12 00:30,50.6304583333333,-96.9807766666667,11.3,17.9,230,979.12,27.5,56,24.44,0.0,1004.25,12.6
2018-07-12 00:40,50.6304566666667,-96.980775,11.0,17.3,231,979.12,27.4,56,24.48,0.0,1004.26,12.6
2018-07-12 00:50,50.6304583333333,-96.980775,9.7,14.4,224,979.08,27.2,56,24.46,0.0,1004.23,12.6
2018-07-12 01:00,50.6304316666667,-96.980745,9.6,15.7,224,979.09,27.2,56,24.46,0.0,1004.24,360.0
2018-07-12 01:10,50.6304566666667,-96.980765,11.2,16.3,224,979.08,27.1,53,24.46,0.0,1004.23,360.0
2018-07-12 01:20,50.63046,-96.98077,9.6,15.3,226,979.09,26.9,53,24.46,0.0,1004.25,360.0
2018-07-12 01:30,50.6304616666667,-96.98077,8.1,13.3,219,979.08,26.7,54,24.46,0.0,1004.22,360.0
2018-07-12 01:40,50.6304583333333,-96.98077,7.6,9.8,213,979.07,26.3,56,24.45,0.0,1004.22,360.0
2018-07-12 01:50,50.63046,-96.9807716666667,7.6,10.7,207,978.99,26.1,58,24.46,0.0,1004.14,360.0
2018-07-12 02:00,50.6304466666667,-96.9807716666667,7.8,10.1,205,978.98,25.8,58,24.48,0.0,1004.13,360.0
2018-07-12 02:10,50.6304566666667,-96.9807683333333,7.4,10.8,201,979.03,25.5,60,24.49,0.0,1004.18,360.0
2018-07-12 02:20,50.6304583333333,-96.9807416666667,7.7,11.0,201,979.15,25.2,61,24.52,0.0,1004.31,360.0
2018-07-12 02:30,50.6304466666667,-96.9807583333333,7.9,11.4,200,979.23,24.9,62,24.48,0.0,1004.41,360.0
2018-07-12 02:40,50.6304533333333,-96.9807616666667,6.8,8.6,203,979.26,24.6,63,24.45,0.0,1004.46,360.0
2018-07-12 02:50,50.63045,-96.9807616666667,7.3,9.3,195,979.29,24.3,64,24.47,0.0,1004.51,360.0
2018-07-12 03:00,50.63045,-96.980765,6.6,9.1,195,979.28,24.0,66,24.45,0.0,1004.51,360.0
2018-07-12 03:10,50.63045,-96.9807666666667,6.6,9.4,200,979.31,23.8,66,24.33,0.0,1004.56,360.0
2018-07-12 03:20,50.63045,-96.9807683333333,6.3,8.1,198,979.31,23.6,68,24.33,0.0,1004.58,360.0
2018-07-12 03:30,50.6304533333333,-96.9807966666667,7.1,9.2,186,979.26,23.1,73,24.31,0.0,1004.57,360.0
2018-07-12 03:40,50.6304583333333,-96.9807883333333,8.3,10.9,193,979.19,22.7,76,24.27,0.0,1004.52,360.0
2018-07-12 03:50,50.6304416666667,-96.9807866666667,8.1,10.3,203,979.26,22.8,74,24.31,0.0,1004.60,360.0
2018-07-12 04:00,50.63044,-96.98077,7.8,12.2,207,979.27,22.9,72,24.34,0.0,1004.62,310.6
2018-07-12 04:10,50.630445,-96.98077,6.9,10.8,209,979.21,23.0,71,24.32,0.0,1004.57,310.6
2018-07-12 04:20,50.6304483333333,-96.9807683333333,7.3,10.8,214,979.19,22.7,71,24.27,0.0,1004.57,310.6
2018-07-12 04:30,50.6304516666667,-96.9807666666667,9.7,14.2,217,979.10,22.9,63,24.26,0.0,1004.48,310.6
2018-07-12 04:40,50.6304516666667,-96.980765,9.8,14.6,226,979.05,23.1,58,24.22,0.0,1004.44,310.6
2018-07-12 04:50,50.6304533333333,-96.9807633333333,9.1,14.1,222,979.00,23.1,56,24.25,0.0,1004.39,310.6
2018-07-12 05:00,50.630455,-96.9807633333333,7.8,11.3,216,978.97,22.8,57,24.27,0.0,1004.39,48.3
2018-07-12 05:10,50.63046,-96.9807666666667,7.6,10.3,215,978.96,22.6,57,24.28,0.0,1004.39,48.3
2018-07-12 05:20,50.63046,-96.980775,8.0,11.2,214,978.91,22.4,58,24.28,0.0,1004.37,48.3
2018-07-12 05:30,50.63046,-96.9807716666667,8.9,12.8,212,978.86,22.4,58,24.25,0.0,1004.35,48.3
2018-07-12 05:40,50.63046,-96.9807666666667,9.6,13.6,211,978.87,22.3,58,24.23,0.0,1004.35,48.3
2018-07-12 05:50,50.63046,-96.98077,10.4,16.9,209,978.90,22.4,58,24.22,0.0,1004.38,48.3
2018-07-12 06:00,50.6304583333333,-96.9807683333333,9.1,14.6,217,979.03,22.4,58,24.21,0.0,1004.50,38.0
2018-07-12 06:10,50.6304566666667,-96.98077,7.9,12.0,224,979.01,22.3,59,24.20,0.0,1004.50,38.0
2018-07-12 06:20,50.630445,-96.9807416666667,8.2,11.4,216,979.03,22.2,59,24.17,0.0,1004.52,38.0
2018-07-12 06:30,50.6304483333333,-96.9807533333333,9.9,14.9,225,979.13,22.3,59,24.16,0.0,1004.60,38.0
2018-07-12 06:40,50.6304516666667,-96.9807583333333,11.4,17.0,230,979.22,22.4,58,24.15,0.0,1004.70,38.0
2018-07-12 06:50,50.630455,-96.9807616666667,10.8,15.3,231,979.22,22.3,58,24.13,0.0,1004.71,38.0
2018-07-12 07:00,50.6304566666667,-96.980765,10.3,16.9,230,979.20,22.2,59,24.12,0.0,1004.71,38.0
2018-07-12 07:10,50.6304566666667,-96.9807666666667,11.0,17.0,236,979.21,22.0,59,24.10,0.0,1004.73,38.0
2018-07-12 07:20,50.6304566666667,-96.9807683333333,9.3,15.3,236,979.23,21.8,60,24.07,0.0,1004.76,38.0
2018-07-12 07:30,50.6304566666667,-96.9807683333333,11.6,17.6,237,979.15,21.7,60,24.05,0.0,1004.69,38.0
2018-07-12 07:40,50.6304633333333,-96.980755,11.2,17.8,235,979.25,21.7,61,24.04,0.0,1004.79,38.0
2018-07-12 07:50,50.63046,-96.9807083333333,10.6,14.9,237,979.40,21.6,61,24.03,0.0,1004.94,38.0
2018-07-12 08:00,50.6304466666667,-96.9807516666667,8.9,13.9,227,979.36,21.5,63,24.01,0.0,1004.91,119.2
2018-07-12 08:10,50.6304483333333,-96.9807583333333,6.8,10.6,220,979.35,21.1,64,24.00,0.0,1004.92,119.2
2018-07-12 08:20,50.63045,-96.98076,6.7,8.9,213,979.38,20.8,65,23.98,0.0,1004.96,119.2
2018-07-12 08:30,50.63045,-96.98076,7.6,10.7,217,979.29,20.7,67,23.96,0.0,1004.87,119.2
2018-07-12 08:40,50.63045,-96.9807633333333,7.7,10.7,215,979.21,20.5,67,23.94,0.0,1004.80,119.2
2018-07-12 08:50,50.6304516666667,-96.980765,7.0,12.5,220,979.19,20.4,68,23.91,0.0,1004.79,119.2
2018-07-12 09:00,50.6304633333333,-96.980775,7.6,11.0,224,979.15,20.4,68,23.87,0.0,1004.75,347.4
2018-07-12 09:10,50.6304633333333,-96.9807733333333,8.2,11.5,229,979.21,20.4,68,23.85,0.0,1004.83,347.4
2018-07-12 09:20,50.63046,-96.980775,7.9,11.8,230,979.27,20.4,68,23.86,0.0,1004.90,347.4
2018-07-12 09:30,50.6304583333333,-96.980775,7.4,11.7,233,979.22,20.2,69,23.85,0.0,1004.85,347.4
2018-07-12 09:40,50.6304583333333,-96.9807766666667,7.5,10.8,245,979.23,20.2,69,23.85,0.0,1004.86,347.4
2018-07-12 09:50,50.6304583333333,-96.980775,7.6,11.6,249,979.23,20.2,70,23.83,0.0,1004.87,347.4
2018-07-12 10:00,50.6304583333333,-96.9807766666667,8.3,13.6,248,979.29,20.1,70,23.81,0.0,1004.95,347.4
2018-07-12 10:10,50.63046,-96.9807766666667,7.8,12.0,249,979.35,20.1,70,23.80,0.0,1005.03,347.4
2018-07-12 10:20,50.63046,-96.9807766666667,8.3,14.4,245,979.42,20.1,70,23.79,0.0,1005.11,347.4
2018-07-12 10:30,50.6304583333333,-96.980775,7.0,10.5,245,979.41,20.0,70,23.78,0.0,1005.11,347.4
2018-07-12 10:40,50.6304583333333,-96.980775,7.1,10.9,241,979.58,20.0,71,23.74,0.0,1005.29,347.4
2018-07-12 10:50,50.6304583333333,-96.980775,7.4,14.4,236,979.80,20.0,71,23.73,0.0,1005.51,347.4
2018-07-12 11:00,50.63045,-96.9807766666667,7.3,10.4,235,979.95,20.0,71,23.72,0.0,1005.66,293.6
2018-07-12 11:10,50.63046,-96.980775,6.6,10.3,234,980.02,20.0,72,23.67,0.0,1005.74,293.6
2018-07-12 11:20,50.6304583333333,-96.980775,5.9,9.7,237,979.97,20.0,72,23.57,0.0,1005.69,293.6
2018-07-12 11:30,50.6304566666667,-96.9807716666667,6.7,10.0,235,979.98,20.0,72,23.61,0.0,1005.71,293.6
2018-07-12 11:40,50.63045,-96.9807683333333,6.4,9.4,232,980.17,20.1,72,23.62,0.0,1005.90,293.6
2018-07-12 11:50,50.6304466666667,-96.9807666666667,6.7,10.0,225,980.38,20.3,72,23.60,0.0,1006.10,293.6
2018-07-12 12:00,50.63046,-96.9807666666667,7.3,9.8,219,980.66,20.3,72,23.59,0.0,1006.40,167.4
2018-07-12 12:10,50.6304666666667,-96.9807566666667,8.4,12.3,223,980.75,20.4,71,23.58,0.0,1006.48,167.4
2018-07-12 12:20,50.630455,-96.98077,7.6,11.8,220,980.83,20.7,70,23.58,0.0,1006.55,167.4
2018-07-12 12:30,50.6304466666667,-96.9807816666667,8.8,12.7,215,980.87,20.9,69,23.57,0.0,1006.59,167.4
2018-07-12 12:40,50.630445,-96.9807783333333,8.1,12.0,220,980.79,21.0,69,23.56,0.0,1006.50,167.4
2018-07-12 12:50,50.6304466666667,-96.9807733333333,9.1,13.6,220,980.96,21.2,68,23.55,0.0,1006.67,167.4
2018-07-12 13:00,50.6304483333333,-96.980775,9.7,12.9,217,981.02,21.4,67,23.54,0.0,1006.72,360.0
2018-07-12 13:10,50.63045,-96.9807766666667,9.8,14.3,221,980.95,21.7,65,23.55,0.0,1006.63,360.0
2018-07-12 13:20,50.63045,-96.9807716666667,10.2,16.0,223,981.02,21.9,64,23.55,0.0,1006.70,360.0
2018-07-12 13:30,50.63045,-96.98077,10.5,19.2,232,981.05,22.2,61,23.55,0.0,1006.71,360.0
2018-07-12 13:40,50.63045,-96.9807683333333,10.9,17.4,220,981.04,22.4,60,23.55,0.0,1006.68,360.0
2018-07-12 13:50,50.63045,-96.9807666666667,10.2,15.4,223,980.97,22.7,59,23.56,0.0,1006.60,360.0
2018-07-12 14:00,50.63045,-96.9807666666667,13.2,18.6,205,981.03,22.2,65,23.56,0.0,1006.68,90.0
2018-07-12 14:10,50.6304516666667,-96.9807666666667,12.9,17.9,211,981.13,22.0,66,23.55,0.0,1006.78,90.0
2018-07-12 14:20,50.6304516666667,-96.980765,12.9,19.6,215,981.21,22.1,65,23.55,0.0,1006.85,90.0
2018-07-12 14:30,50.6304516666667,-96.980765,12.2,17.0,214,981.12,22.2,65,23.56,0.0,1006.75,90.0
2018-07-12 14:40,50.63042,-96.9807766666667,12.3,19.4,230,981.10,22.9,61,23.58,0.0,1006.68,90.0
2018-07-12 14:50,50.6304416666667,-96.9807716666667,15.0,22.7,237,981.05,23.6,55,23.60,0.0,1006.59,90.0
2018-07-12 15:00,50.630445,-96.9807666666667,15.3,20.4,234,981.02,23.7,55,23.62,0.0,1006.54,360.0
2018-07-12 15:10,50.6304466666667,-96.9807633333333,16.5,22.4,232,980.97,24.0,54,23.63,0.0,1006.47,360.0
2018-07-12 15:20,50.630445,-96.9807633333333,14.9,21.6,223,981.03,24.2,55,23.65,0.0,1006.51,360.0
2018-07-12 15:30,50.630445,-96.9807633333333,13.4,20.8,225,981.05,24.3,55,23.66,0.0,1006.52,360.0
2018-07-12 15:40,50.630445,-96.9807633333333,14.1,21.0,227,981.03,24.5,54,23.67,0.0,1006.48,360.0
2018-07-12 15:50,50.630445,-96.9807616666667,13.3,20.4,227,980.98,24.8,52,23.68,0.0,1006.43,360.0
2018-07-12 16:00,50.630445,-96.9807616666667,15.0,21.7,239,980.99,25.1,50,23.68,0.0,1006.44,125.3
2018-07-12 16:10,50.6304466666667,-96.9807616666667,11.5,20.6,251,980.89,25.6,47,23.69,0.0,1006.31,125.3
2018-07-12 16:20,50.6304466666667,-96.9807633333333,14.6,21.7,246,980.91,25.7,47,23.71,0.0,1006.32,125.3
2018-07-12 16:30,50.6304466666667,-96.9807633333333,11.6,19.1,248,980.84,26.0,47,23.74,0.0,1006.20,125.3
2018-07-12 16:40,50.6304483333333,-96.9807633333333,14.7,23.0,255,980.77,26.3,45,23.78,0.0,1006.09,125.3
2018-07-12 16:50,50.6304483333333,-96.9807633333333,13.1,23.6,251,980.81,26.5,45,23.82,0.0,1006.12,125.3
2018-07-12 17:00,50.63045,-96.9807633333333,12.8,23.8,251,980.82,26.7,45,23.86,0.0,1006.11,0.0
2018-07-12 17:10,50.63045,-96.9807633333333,12.7,23.9,248,980.77,26.6,44,23.90,0.0,1006.05,0.0
2018-07-12 17:20,50.63045,-96.9807633333333,13.1,23.0,241,980.90,26.9,44,23.97,0.0,1006.17,0.0
2018-07-12 17:30,50.63046,-96.9807616666667,15.9,21.4,244,980.92,26.8,44,24.04,0.0,1006.19,0.0
2018-07-12 17:40,50.6304583333333,-96.9807616666667,14.2,22.0,252,980.92,26.9,44,24.04,0.0,1006.17,0.0
2018-07-12 17:50,50.6304233333333,-96.98074,15.6,23.6,247,981.04,27.0,43,24.05,0.0,1006.27,0.0
2018-07-12 18:00,50.6304483333333,-96.9807483333333,13.8,22.5,252,980.95,27.2,44,24.07,0.0,1006.16,54.7
2018-07-12 18:10,50.6304483333333,-96.9807566666667,14.6,22.9,236,980.98,27.3,43,24.06,0.0,1006.18,54.7
2018-07-12 18:20,50.630445,-96.98076,14.3,25.4,244,980.94,27.4,44,24.08,0.0,1006.11,54.7
2018-07-12 18:30,50.630445,-96.9807583333333,15.4,25.9,249,980.90,27.8,41,24.09,0.0,1006.04,54.7
2018-07-12 18:40,50.6304516666667,-96.9807666666667,14.1,21.9,251,980.96,28.0,40,24.11,0.0,1006.10,54.7
2018-07-12 18:50,50.6304566666667,-96.9807683333333,12.0,20.3,254,980.94,28.2,40,24.14,0.0,1006.06,54.7
2018-07-12 19:00,50.6304583333333,-96.9807683333333,13.5,20.4,246,981.06,28.3,39,24.20,0.0,1006.18,360.0
2018-07-12 19:10,50.63046,-96.9807716666667,16.1,25.4,247,981.07,28.4,37,24.27,0.0,1006.16,360.0
2018-07-12 19:20,50.63046,-96.980775,14.8,23.6,247,981.20,28.9,36,24.31,0.0,1006.29,360.0
2018-07-12 19:30,50.6304533333333,-96.9807733333333,15.2,22.9,251,981.24,28.8,36,24.35,0.0,1006.32,360.0
2018-07-12 19:40,50.6304533333333,-96.9807716666667,11.0,19.3,262,981.28,28.6,35,24.35,0.0,1006.37,360.0
2018-07-12 19:50,50.630455,-96.98077,12.2,19.2,258,981.33,28.7,35,24.35,0.0,1006.41,360.0
2018-07-12 20:00,50.630455,-96.9807666666667,13.4,21.4,264,981.35,28.9,33,24.33,0.0,1006.42,90.0
2018-07-12 20:10,50.630455,-96.980765,12.6,20.9,274,981.35,29.0,33,24.31,0.0,1006.41,90.0
2018-07-12 20:20,50.6304566666667,-96.9807633333333,10.1,18.2,275,981.43,28.8,35,24.25,0.0,1006.49,90.0
2018-07-12 20:30,50.6304533333333,-96.9807633333333,12.2,20.2,276,981.43,29.1,34,24.20,0.0,1006.46,90.0
2018-07-12 20:40,50.6304516666667,-96.9807683333333,10.8,20.4,270,981.65,29.3,34,24.13,0.0,1006.67,90.0
2018-07-12 20:50,50.6304516666667,-96.9807683333333,11.8,20.3,265,981.78,29.1,36,24.17,0.0,1006.81,90.0
2018-07-12 21:00,50.6304533333333,-96.9807683333333,11.5,18.0,276,981.81,28.9,37,24.28,0.0,1006.84,299.2
2018-07-12 21:10,50.6304533333333,-96.98077,11.0,22.5,278,981.89,29.1,36,24.32,0.0,1006.90,299.2
2018-07-12 21:20,50.6304516666667,-96.9807716666667,11.2,23.0,288,981.84,29.5,36,24.33,0.0,1006.83,299.2
2018-07-12 21:30,50.6304516666667,-96.9807716666667,11.4,20.9,286,981.89,29.5,35,24.35,0.0,1006.90,299.2
2018-07-12 21:40,50.6304483333333,-96.9807733333333,11.1,20.4,275,982.05,29.5,35,24.39,0.0,1007.06,299.2
2018-07-12 21:50,50.6304433333333,-96.9807683333333,13.0,23.1,279,982.07,29.5,34,24.36,0.0,1007.07,299.2
2018-07-12 22:00,50.6304433333333,-96.98075,12.4,20.0,271,982.23,29.6,34,24.38,0.0,1007.22,176.8
2018-07-12 22:10,50.6304483333333,-96.9807733333333,12.1,21.0,286,982.30,29.4,35,24.45,0.0,1007.31,176.8
2018-07-12 22:20,50.6304466666667,-96.9807666666667,12.0,18.7,290,982.34,29.5,34,24.49,0.0,1007.33,176.8
2018-07-12 22:30,50.6304433333333,-96.98077,12.7,21.7,274,982.48,29.7,33,24.51,0.0,1007.46,176.8
2018-07-12 22:40,50.63045,-96.9807866666667,12.1,19.3,274,982.64,29.8,32,24.52,0.0,1007.63,176.8
2018-07-12 22:50,50.6304466666667,-96.9807766666667,10.5,17.3,285,982.72,29.6,34,24.53,0.0,1007.73,176.8
2018-07-12 23:00,50.630445,-96.9807783333333,11.1,19.2,278,982.81,29.4,31,24.52,0.0,1007.82,229.4
2018-07-12 23:10,50.6304466666667,-96.980765,10.8,18.9,276,982.87,29.8,30,24.48,0.0,1007.84,229.4
2018-07-12 23:20,50.6304466666667,-96.98078,9.9,17.4,290,982.86,29.9,30,24.47,0.0,1007.84,229.4
2018-07-12 23:30,50.6304466666667,-96.980775,10.9,18.2,291,982.83,29.7,31,24.48,0.0,1007.81,229.4
2018-07-12 23:40,50.630435,-96.9807983333333,8.1,14.5,288,982.89,29.5,32,24.46,0.0,1007.88,229.4
2018-07-12 23:50,50.6304383333333,-96.9807833333333,8.8,15.9,288,982.88,29.7,32,24.43,0.0,1007.85,229.4
